Regional Weather Roundup
Issued by NWS Tampa Bay Area, FL

Home | Current Version | Previous Version | Text Only | Print | Product List | Glossary On
Versions: 1 2 3 4 5 6 7 8 9 10 11 12 13 14 15 16 17 18 19 20 21 22 23 24 25 26 27 28 29 30 31 32 33 34 35 36 37 38 39 40 41 42 43 44 45 46 47
000
NZUS99 KTBW 031619
RWRTPA
FLORIDA REGIONAL WEATHER ROUNDUP
NATIONAL WEATHER SERVICE TAMPA BAY RUSKIN FL
1200 PM EDT WED JUN 03 2020

NOTE: "FAIR" INDICATES FEW OR NO CLOUDS BELOW 12,000 FEET WITH NO
SIGNIFICANT WEATHER AND/OR OBSTRUCTIONS TO VISIBILITY.



STATION/POSITION



FLZ042-048>051-055-056-060-061-031700-
EXTRA STATIONS

CITY           SKY/WX    TMP DP  RH WIND       PRES   REMARKS
Everglades Cty NOT AVBL
CRYSTAL RIVER  FAIR      84  66  54 E7        30.06F
SEBRING        CLOUDY    80  73  80 E13       30.06F
EGLIN AFB      PTSUNNY   81  71  73 E5        30.06F
CANAVERAL      CLOUDY    80  71  73 E10       30.06F

$$
FLZ001>010-012>015-031700-
PANHANDLE FLORIDA

CITY           SKY/WX    TMP DP  RH WIND       PRES   REMARKS
PENSACOLA      CLOUDY    85  72  65 VRB5      30.05F HX  91
PENSACOLA NAS  PTSUNNY   81  72  74 VRB6      30.06R THUNDER
CRESTVIEW      PTSUNNY   83  71  67 CALM      30.07F
VALPARAISO     CLOUDY    81  71  69 E3        30.05F
MARY ESTHER    CLOUDY    82  71  68 E3        30.04F
PANAMA CITY    PTSUNNY   81  74  79 SE7       30.05F
TYNDALL AFB    CLOUDY    84  73  70 SE7       30.05F HX  91
APALACHICOLA   CLOUDY    81  74  79 SE7       30.06S

STATION/POSITION


29.2N   88.2W
28.8N   86.0W
28.5N   84.5W

$$
FLZ011-016>039-031700-
NORTH FLORIDA

CITY           SKY/WX    TMP DP  RH WIND       PRES   REMARKS
MARIANNA       CLOUDY    79  72  79 SE5       30.06F
TALLAHASSEE    CLOUDY    79  71  76 CALM      30.07F
CROSS CITY     CLOUDY    82  69  66 SE5       30.08F
GAINESVILLE    CLOUDY    81  68  64 VRB5      30.10F
MAYPORT NAS    CLOUDY    81  63  54 E9        30.09F
JACKSONVILLE   CLOUDY    84  62  47 E6        30.08F
JAX CRAIG      PTSUNNY   80  62  54 VRB6      30.09F
ST AUGUSTINE   CLOUDY    80  66  62 E8        30.10F

STATION/POSITION


KEATON BEACH
31.4N   80.9W
ST AUGUSTINE

$$
FLZ040-043>046-052-053-057-058-063-031700-
CENTRAL FLORIDA

CITY           SKY/WX    TMP DP  RH WIND       PRES   REMARKS
OCALA          CLOUDY    82  67  60 E6        30.08F
LEESBURG       CLOUDY    83  69  62 SE7       30.08F
SANFORD        CLOUDY    83  67  58 E9        30.07F
ORLANDO EXEC   CLOUDY    82  69  64 E8        30.07F
ORLANDO INTL   CLOUDY    83  71  67 E10       30.06F
KISSIMMEE      CLOUDY    82  73  74 E9        30.07F
WINTER HAVEN   CLOUDY    82  70  66 E9        30.07F
LAKELAND       PTSUNNY   81  70  69 E12       30.07F
BARTOW         PTSUNNY   84  72  65 E12       30.05F

$$
FLZ041-047-054-059-064-031700-
EAST CENTRAL FLORIDA

CITY           SKY/WX    TMP DP  RH WIND       PRES   REMARKS
DAYTONA BEACH  CLOUDY    76  71  85 NE6       30.09S
JFK SPACE CTR  CLOUDY    82  72  69 SE9       30.07F
TITUSVILLE     PTSUNNY   84  72  65 E12       30.08
PATRICK AFB    CLOUDY    81  71  72 SE13      30.07S
MELBOURNE      LGT RAIN  76  74  93 SE9       30.07S
VERO BEACH     LGT RAIN  74  72  93 E8        30.08S FOG
FT PIERCE      RAIN      74  73  97 CALM      30.08S FOG

STATION/POSITION


28.9N   78.5W

$$
FLZ042-048>051-055-056-060-061-031700-
WEST CENTRAL FLORIDA

CITY           SKY/WX    TMP DP  RH WIND       PRES   REMARKS
BROOKSVILLE    CLOUDY    83  68  60 E6        30.07F
TAMPA          CLOUDY    85  68  56 NE8       30.06F
MACDILL AFB    CLOUDY    83  72  69 E8        30.04
ST PETERSBURG  CLOUDY    83  72  69 E8        30.05F
ST PET-WHITTED CLOUDY    82  77  84 E13       30.04F HX  90
SARASOTA       CLOUDY    85  73  67 SE12      30.02F HX  91

STATION/POSITION


CEDAR KEY
28.5N   84.5W
VENICE

$$
FLZ062-065-066-069-070-075>078-031700-
SOUTHWEST FLORIDA AND KEYS

CITY           SKY/WX    TMP DP  RH WIND       PRES   REMARKS
PUNTA GORDA    CLOUDY    83  74  74 E5        30.05S
FT MYERS       CLOUDY    82  75  79 E7        30.02F
SOUTHWEST INTL CLOUDY    82  75  79 SE8       30.03S
NAPLES         PTSUNNY   88  77  69 SE9       30.02F HX 100
MARATHON       CLOUDY    84  76  76 E7        30.01S HX  93
KEY WEST NAS   TSTM      80  75  84 S15       30.04R VSB 1/2
KEY WEST INTL  TSTM      77  74  90 SE14G20   30.05R VSB 3/4

STATION/POSITION


VENICE
26.0N   85.6W
SOMBRERO KEY

$$
FLZ067-068-071>074-031700-
SOUTHEAST FLORIDA

CITY           SKY/WX    TMP DP  RH WIND       PRES   REMARKS
W PALM BEACH   TSTM      74  72  93 SE8       30.07R FOG
POMPANO BEACH  TSTM      71  71 100 NW5       30.05S VSB 3/4
FT LAUDER-EXEC LGT RAIN  77  73  87 CALM      30.05F
FT LAUDERDALE  TSTM      76  74  93 SW8       30.05S
PEMBROKE PINES TSTM     N/A N/A N/A CALM      30.06S
OPA LOCKA      LGT RAIN  77  74  90 NE8       30.05F
MIAMI          CLOUDY    83  76  79 E6        30.04S HX  91
WEST KENDALL   CLOUDY    85  75  72 SE13      30.03S HX  93
HOMESTEAD      CLOUDY    86  74  68 SE15      30.02S HX  94

STATION/POSITION


LAKE WORTH
FOWEY ROCKS
SETTLEMENT POINT

$$




USA.gov is the U.S. government's official web portal to all federal, state and local government web resources and services.